Hourly Weather Roundup
Issued by NWS Central Illinois

Home | Current Version | Previous Version | Text Only | Print | Product List | Glossary On
Versions: 1 2 3 4 5 6 7 8 9 10 11 12 13 14 15 16 17 18 19 20 21 22 23 24 25 26 27 28 29 30 31 32 33 34 35 36 37 38 39 40 41 42 43 44 45 46 47 48 49 50
000
NZUS43 KILX 190310
HWRILX

Area Weather Roundup
National Weather Service Lincoln IL
900 PM CST THU JAN 18 2018

NOTE:  "FAIR" indicates few or no clouds below 12,000 feet, with
       no sigificant weather and/or obstructions to visibility.


CITY           SKY/WX    TMP DP  RH WIND       PRES   REMARKS
Bloomington    FAIR      28  22  78 SW16      30.06F WCI  16
Champaign      FAIR      25  18  74 S20       30.10F WCI  11
Danville       FAIR      24  15  67 S21G26    30.08F WCI  10
Decatur        FAIR      28  21  75 SW20      30.11F WCI  15
Effingham      FAIR      27  16  63 S7        30.20S WCI  20
Flora          FAIR      27  16  65 SW16      30.22F WCI  14
Galesburg      FAIR      31  23  71 S13       30.02S WCI  21
Jacksonville   CLOUDY    35  18  49 S10       30.09F WCI  27
Lacon          FAIR      32  20  62 SW9       30.02F WCI  24
Lawrenceville  FAIR      22  11  62 S15       30.23F WCI   9
Litchfield     CLEAR     28  22  81 S13       30.14F WCI  17
$$


CITY           SKY/WX    TMP DP  RH WIND       PRES   REMARKS
Lincoln        FAIR      31  24  77 S6        30.09S WCI  25
Macomb         CLOUDY    33  21  61 SW15      30.05F WCI  23
Mattoon        FAIR      25  16  68 S16       30.13F WCI  12
Mt Carmel AP   FAIR      25  12  58 SW15      30.23F WCI  13
Olney-Noble AP FAIR      25   9  50 S8        30.23F WCI  17
Paris AP       FAIR      25  16  68 S21       30.15F WCI  11
Peoria         FAIR      30  20  66 S10       30.05F WCI  21
Pontiac        FAIR      28  22  81 S12       30.05F WCI  17
Rantoul        FAIR      24  19  81 S9        30.10F WCI  14
Robinson       FAIR      25  12  59 S9        30.23F WCI  15
Springfield    FAIR      30  21  69 S10       30.10F WCI  21
Taylorville    FAIR      28  22  76 S17       30.13S WCI  16
$$

...REGIONAL REPORTS...


CITY           SKY/WX    TMP DP  RH WIND       PRES   REMARKS
Chicago O`Hare FAIR      31  20  63 SW10      29.97S WCI  22
Kankakee       FAIR     N/A N/A N/A SW14G20   30.06F
Moline         FAIR      32  21  64 SW10      29.99R WCI  24
Mount Sterling CLOUDY    36  18  48 SW14      30.06F WCI  27
Mount Vernon   FAIR      25  19  78 SW14      30.24S WCI  13
Pittsfield     CLOUDY    38  19  48 SW13G18   30.10S WCI  30
Quincy         CLOUDY    34  19  54 SW14      30.06F WCI  25
Rockford       MOCLDY    31  19  61 SW8       29.99R WCI  23
$$


CITY           SKY/WX    TMP DP  RH WIND       PRES   REMARKS
Burlington     CLOUDY    32  20  61 SW15      30.01F WCI  22
Cedar Rapids   FAIR      28  21  75 S10       29.94S WCI  19
Des Moines     CLOUDY    32  22  66 SW12      29.94F WCI  23
Kirksville     CLOUDY    32  22  66 SW13      30.04F WCI  22
Ottumwa        PTCLDY    33  20  58 SW14      29.98R WCI  23
St Louis       MOCLDY    39  18  42 SW8       30.15F WCI  33
$$


CITY           SKY/WX    TMP DP  RH WIND       PRES   REMARKS
Terre Haute    FAIR      24  11  57 S8        30.19F WCI  15
Evansville     FAIR      24  13  62 SW15      30.29F WCI  11
Indianapolis   FAIR      25  12  58 SW15      30.17F WCI  13
Lafayette      FAIR      24  15  68 SW9       30.12F WCI  14
Madison        FAIR      28  19  69 SW8       29.91S WCI  20
Milwaukee      MOCLDY    30  20  66 SW12G21   29.91S WCI  20
$$






USA.gov is the U.S. government's official web portal to all federal, state and local government web resources and services.